Weather History for Nome, AK

Change the Weather History Date:

Sunday, June 17, 2012

  Actual Average Record
Temperature  
Mean Temperature 55 °F 49 °F  
Max Temperature 64 °F 56 °F 84 °F (2013)
Min Temperature 45 °F 41 °F 27 °F (1910)
Degree Days  
Heating Degree Days 10 17  
Month to date heating degree days 264 324  
Since 1 June heating degree days 264 324  
Since 1 July heating degree days 14971 13512  
Cooling Degree Days 0    
Month to date cooling degree days 0  
Year to date cooling degree days 0  
Since 1 June cooling degree days 0  
Growing Degree Days 4 (Base 50)    
Moisture  
Dew Point 40 °F    
Average Humidity 0    
Maximum Humidity 0    
Minimum Humidity 0    
Precipitation  
Precipitation 0.00 in 0.03 in 0.40 in (1978)
Month to date precipitation T 0.50  
Year to date precipitation 2.78 4.64  
Snow  
Snow 0.00 in 0.00 in 0.00 in (2014)
Month to date snowfall 0.0 0.3  
Since 1 June snowfall 0.0 0.3  
Since 1 July snowfall 80.6 75.7  
Snow Depth 0.00 in    
Sea Level Pressure  
Sea Level Pressure 29.76 in    
Wind  
Wind Speed 7 mph (SW)    
Max Wind Speed 20 mph    
Max Gust Speed 22 mph    
Visibility 10 miles    
Events      
T = Trace of Precipitation, MM = Missing Value Source: NWS Daily Summary

Daily Weather History Graph

Daily Weather History Graph

Search for Another Location

Airport:

Trip Planner

Search our weather history database for the weather conditions in past years. The results will help you decide how hot, cold, wet, or windy it might be!

Date:

Astronomy

Jun. 17, 2012 Rise Set
Actual Time 4:19 AM AKDT 1:46 AM AKDT
Civil Twilight Sun does not rise Sun does not rise
Nautical Twilight Sun does not rise Sun does not rise
Astronomical Twilight Sun does not rise Sun does not rise
Moon 3:48 AM AKDT (6/17) 11:44 PM AKDT (6/17)
Length of Visible Light 24h 00m
Length of Day
21h 27m
Waning Crescent, 3% of the Moon is Illuminated
Jun 17
Waning Crescent
Jun 19
New
Jun 26
First Quarter
Jul 3
Full
Jul 10
Last Quarter

Hourly Weather History & Observations

Time (AKDT) Temp. Dew Point Humidity Pressure Visibility Wind Dir Wind Speed Gust Speed Precip Events Conditions
12:53 AM 48.9 °F 43.0 °F 80% 29.58 in 10.0 mi Calm Calm - N/A   Overcast
1:53 AM 50.0 °F 44.1 °F 80% 29.60 in 10.0 mi Calm Calm - N/A   Overcast
2:53 AM 48.9 °F 43.0 °F 80% 29.62 in 10.0 mi NE 3.5 mph - N/A   Overcast
3:53 AM 48.9 °F 43.0 °F 80% 29.64 in 10.0 mi Calm Calm - N/A   Mostly Cloudy
4:53 AM 46.0 °F 39.9 °F 79% 29.65 in 10.0 mi Calm Calm - N/A   Mostly Cloudy
5:53 AM 50.0 °F 41.0 °F 71% 29.68 in 10.0 mi Calm Calm - N/A   Mostly Cloudy
6:53 AM 48.9 °F 37.9 °F 66% 29.69 in 10.0 mi NW 3.5 mph - N/A   Mostly Cloudy
7:53 AM 50.0 °F 37.0 °F 61% 29.71 in 10.0 mi SSW 3.5 mph - N/A   Mostly Cloudy
8:53 AM 50.0 °F 37.9 °F 63% 29.73 in 10.0 mi South 3.5 mph - N/A   Mostly Cloudy
9:53 AM 51.1 °F 37.9 °F 61% 29.76 in 10.0 mi Calm Calm - N/A   Mostly Cloudy
10:53 AM 55.0 °F 39.0 °F 55% 29.77 in 10.0 mi SSW 3.5 mph - N/A   Mostly Cloudy
11:53 AM 51.1 °F 41.0 °F 68% 29.78 in 10.0 mi SSE 3.5 mph - N/A   Mostly Cloudy
12:53 PM 55.0 °F 42.1 °F 62% 29.79 in 10.0 mi SSW 5.8 mph - N/A   Mostly Cloudy
1:53 PM 55.0 °F 41.0 °F 59% 29.80 in 10.0 mi SSW 8.1 mph - N/A   Scattered Clouds
2:53 PM 53.1 °F 41.0 °F 64% 29.81 in 10.0 mi SSW 5.8 mph - N/A   Mostly Cloudy
3:53 PM 54.0 °F 39.9 °F 59% 29.82 in 10.0 mi WSW 12.7 mph - N/A   Scattered Clouds
4:53 PM 52.0 °F 41.0 °F 66% 29.82 in 10.0 mi WSW 13.8 mph - N/A   Mostly Cloudy
5:53 PM 57.9 °F 41.0 °F 53% 29.83 in 10.0 mi WSW 18.4 mph - N/A   Scattered Clouds
6:53 PM 61.0 °F 42.1 °F 50% 29.83 in 10.0 mi West 17.3 mph - N/A   Clear
7:53 PM 57.9 °F 41.0 °F 53% 29.84 in 10.0 mi WSW 13.8 mph - N/A   Scattered Clouds
8:53 PM 55.9 °F 39.0 °F 53% 29.85 in 10.0 mi West 11.5 mph - N/A   Mostly Cloudy
9:53 PM 55.0 °F 39.0 °F 55% 29.85 in 10.0 mi WSW 12.7 mph - N/A   Partly Cloudy
10:53 PM 54.0 °F 39.0 °F 57% 29.86 in 10.0 mi West 9.2 mph - N/A   Mostly Cloudy
11:53 PM 51.1 °F 39.9 °F 66% 29.87 in 10.0 mi WNW 8.1 mph - N/A   Clear